Wind_Speed
67 65 62 56 51 46 35 32 28 39 38 44 42 33 31 43 62 66 65 62 60 59 60 57 54 54 53 52 51 45 46 48 45 45 47 46 47 48 48 50 49 50 50 50
72 68 69 64 56 48 42 41 38 39 30 42 48 42 33 36 40 51 64 69 67 65 64 62 63 64 63 57 56 54 51 52 50 49 52 51 51 52 52 54 54 54 56 56
79 80 78 71 48 53 50 47 45 40 45 48 46 48 44 38 37 41 45 52 66 74 73 70 68 70 67 65 61 57 57 57 58 57 57 57 56 55 57 59 59 59 60 61
86 91 87 59 65 64 60 55 50 46 49 47 46 49 48 41 39 40 48 44 51 67 79 77 76 74 76 75 68 63 62 62 63 64 64 63 62 61 61 62 62 63 64 65
94 98 84 77 76 76 71 62 59 53 51 49 49 48 43 44 41 39 38 43 47 52 59 76 81 80 80 80 75 72 69 68 71 72 70 67 67 67 67 67 65 65 65 67
99 97 88 82 84 82 81 74 63 59 56 57 55 48 46 50 46 46 44 42 44 50 54 60 71 82 87 85 83 78 76 76 75 74 72 72 72 71 72 70 69 70 69 71
106 102 92 90 89 88 91 63 72 66 62 63 59 53 54 51 52 53 50 50 50 44 48 55 67 75 81 88 87 86 86 84 82 79 78 76 76 75 78 80 80 77 78 78
106 102 94 95 94 92 85 80 76 73 68 66 64 62 61 58 57 58 57 57 54 50 48 53 60 66 69 75 80 85 87 86 84 82 84 82 81 82 83 84 85 82 81 80
113 106 99 100 98 95 89 82 82 77 74 72 70 66 65 61 62 61 61 59 58 54 50 53 53 57 56 56 60 65 69 68 70 74 80 83 84 84 88 93 85 83 85 86
116 109 106 105 103 96 90 81 81 81 80 76 73 70 69 65 61 62 64 62 55 56 57 51 50 51 52 55 53 54 56 54 51 48 52 63 62 63 76 73 65 61 65 70
125 121 116 110 105 95 82 80 80 79 83 81 80 76 70 67 66 65 66 61 57 54 53 53 61 54 50 50 48 48 49 42 21 28 33 39 41 43 32 29 35 45 55 54
119 122 120 116 109 104 93 87 75 81 88 85 83 82 75 71 72 72 59 59 54 47 46 55 59 52 44 43 42 43 36 20 20 27 28 34 37 33 27 25 26 30 49 45
92 106 110 102 80 70 84 107 89 88 89 90 84 87 85 81 76 70 53 57 41 42 53 54 45 47 38 39 37 36 24 19 27 26 23 11 19 30 20 33 32 74 41 58
76 98 98 87 86 109 78 72 79 83 78 79 78 77 71 73 62 51 42 45 53 52 44 37 32 33 25 39 43 40 42 31 18 20 33 22 25 29 28 41 47 63 57 71
67 89 95 99 101 98 97 79 71 76 84 79 71 71 74 70 57 46 49 49 45 41 42 43 38 26 12 19 32 47 64 45 35 21 32 60 54 46 39 49 63 70 76 74
63 86 92 95 93 83 80 74 76 74 69 67 65 62 53 56 55 45 47 48 51 52 49 49 44 34 16 15 32 41 51 44 43 55 72 71 70 75 63 58 70 78 85 89
58 79 84 91 82 85 86 69 61 63 62 64 65 55 54 53 63 56 51 47 53 55 57 59 48 43 34 17 17 40 52 44 48 61 71 71 65 62 69 79 83 86 87 92
58 69 80 89 89 82 66 55 62 63 60 65 61 54 55 58 59 56 51 55 56 58 61 63 58 55 42 32 27 33 41 49 57 63 65 69 66 70 74 83 91 92 96 93
55 71 86 86 93 92 83 60 61 55 53 57 66 60 62 54 52 56 56 57 57 62 61 51 64 63 57 44 41 42 48 59 68 70 71 72 79 80 77 80 81 83 76 64
43 58 79 76 84 87 59 65 60 57 64 65 64 63 60 58 59 58 57 59 65 65 64 53 53 63 66 57 46 49 47 48 50 54 55 59 59 46 59 64 73 72 68 74
39 35 34 36 35 51 62 70 64 58 60 68 69 64 66 62 62 64 64 67 69 71 67 61 63 60 66 75 69 63 61 58 60 60 58 59 66 68 71 74 80 84 90 94
42 44 34 38 37 42 54 66 69 75 62 68 66 69 68 72 73 72 71 73 79 79 78 71 69 71 70 76 77 82 80 77 74 73 73 77 79 83 85 90 83 90 86 81
34 39 45 44 45 50 57 56 62 66 72 71 70 64 68 67 79 75 75 75 77 77 84 77 76 74 77 68 70 71 79 86 89 88 88 90 93 90 92 91 93 82 77 75
38 38 39 45 49 48 49 44 54 59 64 63 64 67 67 66 70 75 80 75 73 73 71 75 79 74 74 72 72 77 84 85 85 84 83 86 86 85 83 89 84 78 76 78
43 42 46 47 51 54 58 55 54 55 58 63 63 68 71 73 73 77 76 77 76 74 73 75 75 80 77 77 72 73 77 81 88 90 96 91 89 90 92 87 84 83 79 83
47 46 47 49 55 59 61 63 64 65 62 61 63 65 69 70 73 73 74 77 80 80 81 80 81 81 81 83 79 78 84 81 79 84 87 87 87 89 89 92 95 90 89 93
56 59 58 59 60 63 64 64 67 73 74 74 75 74 75 75 77 79 81 83 85 86 86 86 88 87 87 87 89 91 90 90 86 88 91 93 92 96 95 95 95 98 103 103
Wind_Direction
237 240 244 243 245 245 234 226 231 228 238 251 262 263 249 238 239 240 241 239 240 243 246 249 251 252 255 253 251 253 260 264 266 270 272 273 276 281 286 289 292 295 298 301
242 239 245 245 243 245 237 235 225 241 252 248 257 260 255 251 244 242 242 241 243 242 244 245 246 251 251 252 255 255 256 261 265 266 270 273 275 278 282 285 289 294 296 300
240 242 243 243 249 247 241 239 235 233 240 247 255 264 262 256 249 245 243 246 245 242 242 243 246 249 250 251 251 253 256 259 262 265 267 269 272 276 279 284 288 291 295 299
234 239 242 242 246 245 242 243 245 241 242 247 249 256 264 266 261 256 248 251 251 247 242 241 243 247 250 250 251 252 254 258 261 263 266 269 272 275 278 281 285 289 292 295
234 238 241 240 243 246 244 241 242 244 248 245 250 255 263 271 270 261 259 252 256 251 248 248 244 245 248 251 252 252 253 255 260 264 266 268 271 275 277 278 281 284 288 292
239 239 239 240 242 243 247 242 245 247 250 253 253 260 262 267 273 274 267 254 259 261 252 248 248 248 248 250 253 255 255 255 255 259 264 269 271 274 277 279 281 283 287 289
238 238 238 238 241 242 244 250 249 249 249 252 255 257 261 267 271 272 273 271 267 262 256 251 249 248 249 250 251 252 255 257 260 263 264 268 271 274 277 281 283 286 287 287
239 240 238 237 238 241 242 248 248 250 252 253 255 259 261 263 266 272 274 274 270 270 258 255 254 254 253 252 253 254 256 259 263 265 269 270 271 272 274 275 276 279 282 286
240 240 237 238 239 242 242 244 250 249 249 248 252 254 258 258 262 267 270 271 273 271 261 260 261 260 260 259 258 257 259 261 262 264 265 269 271 275 277 277 280 282 284 285
239 238 235 237 238 239 242 244 243 249 249 248 252 254 255 256 259 264 269 272 270 275 267 263 265 264 260 258 256 253 251 255 257 265 270 269 275 276 277 282 283 285 288 289
235 237 237 236 237 239 239 241 242 242 245 249 250 251 252 256 259 259 262 262 267 272 263 266 274 270 261 258 255 253 249 236 221 270 272 275 274 275 273 300 299 301 301 298
229 232 235 238 238 237 236 238 238 240 242 247 250 252 253 254 254 254 255 251 260 263 267 260 259 267 265 256 246 239 236 205 259 289 293 297 280 250 244 279 319 308 296 277
219 225 228 228 219 244 234 232 230 235 240 244 245 246 248 249 250 252 245 261 248 245 253 256 258 260 258 243 211 195 189 221 276 297 307 291 316 258 246 279 224 235 240 233
213 215 220 220 231 226 220 214 222 223 228 235 238 242 247 246 245 243 247 242 245 242 251 240 232 239 237 221 225 207 208 218 263 290 287 297 268 277 245 214 221 215 240 243
208 210 212 212 213 221 233 221 228 229 228 232 241 241 240 240 242 224 222 225 234 238 217 221 221 225 253 293 265 238 216 219 254 244 256 248 265 263 236 224 231 234 239 249
205 206 208 215 217 223 231 225 227 229 237 234 235 234 232 229 218 209 219 226 237 235 226 218 211 223 239 292 249 242 235 219 206 203 227 238 245 246 245 235 235 244 255 265
201 206 205 212 218 227 231 229 224 221 228 227 228 229 228 220 215 211 219 223 237 238 242 224 221 239 234 216 227 201 197 212 213 213 218 234 239 244 244 250 248 253 252 263
197 197 203 202 214 223 224 218 212 214 219 224 229 216 223 217 211 216 223 227 235 238 241 232 230 247 224 192 179 192 203 210 222 216 216 221 243 249 249 251 254 259 261 269
198 195 200 206 210 220 227 221 212 210 216 221 213 220 217 213 211 215 221 230 235 237 238 245 237 240 240 236 231 226 226 227 225 225 233 244 250 254 252 252 260 261 261 263
199 200 205 210 214 219 220 205 204 210 212 216 218 220 221 212 211 218 228 233 234 236 243 249 242 242 244 241 250 252 236 232 236 238 241 245 243 257 262 267 271 269 269 274
174 187 193 208 214 218 212 206 200 209 217 216 220 222 227 220 224 227 227 230 232 232 238 244 243 248 245 243 244 254 250 255 262 256 266 271 268 266 269 274 272 268 274 274
184 193 195 220 202 208 208 203 211 215 217 221 224 230 234 229 229 232 231 226 226 232 236 237 240 243 249 246 249 252 256 258 261 264 267 270 272 272 276 280 279 280 280 281
194 198 205 202 203 215 210 212 217 223 222 226 226 230 229 229 224 231 231 234 234 235 236 239 240 243 246 255 256 258 259 260 261 265 266 267 271 272 276 279 282 278 277 276
205 203 209 216 219 216 215 219 226 226 225 227 229 230 231 234 232 229 233 238 243 246 250 247 246 250 252 257 259 256 256 259 260 263 267 267 272 274 275 276 275 269 271 272
216 220 226 227 223 227 223 226 225 228 232 234 236 236 237 239 236 238 241 245 248 249 249 251 251 252 255 256 260 260 260 262 262 265 265 268 271 273 274 273 272 271 272 275
217 218 226 230 231 230 228 228 229 233 235 237 239 242 243 242 242 241 242 243 245 245 247 251 254 257 257 257 258 259 260 263 263 263 266 265 265 268 272 274 273 274 274 273
225 226 228 229 232 234 235 236 238 236 238 238 240 242 243 244 245 246 247 247 247 248 251 252 254 255 257 259 260 261 264 268 268 268 270 271 272 273 274 274 275 275 273 273
Height
10772 10777 10780 10793 10804 10813 10830 10835 10840 10838 10845 10837 10842 10853 10860 10864 10872 10879 10882 10889 10894 10900 10899 10903 10906 10907 10909 10913 10915 10917 10918 10915 10916 10919 10920 10920 10919 10918 10919 10917 10916 10914 10913 10911
10751 10758 10757 10769 10787 10804 10815 10820 10827 10832 10840 10835 10829 10837 10847 10852 10855 10860 10867 10874 10880 10884 10885 10891 10892 10892 10895 10901 10902 10906 10907 10905 10905 10908 10908 10908 10908 10908 10909 10907 10906 10905 10901 10900
10729 10730 10737 10751 10792 10788 10796 10803 10811 10822 10822 10820 10825 10825 10834 10842 10847 10851 10853 10857 10861 10866 10871 10876 10879 10877 10881 10884 10887 10892 10893 10893 10894 10895 10897 10897 10898 10898 10897 10897 10897 10895 10891 10887
10709 10703 10713 10771 10759 10767 10775 10784 10794 10805 10808 10813 10817 10817 10819 10830 10837 10840 10841 10844 10844 10847 10852 10857 10861 10864 10863 10864 10874 10877 10880 10882 10881 10881 10882 10884 10887 10887 10887 10886 10886 10884 10881 10878
10681 10683 10715 10735 10740 10741 10751 10767 10774 10786 10794 10800 10802 10808 10814 10813 10819 10824 10829 10833 10831 10832 10836 10837 10842 10844 10845 10847 10856 10861 10864 10867 10865 10865 10868 10872 10873 10873 10874 10873 10874 10872 10871 10867
10652 10662 10689 10712 10716 10723 10728 10743 10765 10776 10782 10787 10790 10800 10803 10798 10803 10806 10810 10814 10819 10818 10819 10823 10824 10825 10830 10834 10838 10846 10847 10846 10848 10849 10854 10857 10858 10858 10858 10860 10860 10859 10858 10853
10622 10641 10678 10688 10693 10703 10701 10753 10747 10758 10765 10770 10779 10787 10787 10791 10788 10789 10791 10794 10800 10806 10809 10811 10807 10809 10814 10817 10826 10828 10826 10828 10833 10839 10841 10844 10844 10848 10843 10840 10839 10843 10838 10835
10594 10614 10649 10663 10672 10683 10702 10718 10732 10741 10750 10755 10762 10768 10774 10775 10776 10775 10776 10779 10782 10787 10791 10791 10795 10798 10803 10809 10813 10812 10815 10819 10823 10827 10827 10829 10831 10831 10828 10824 10821 10825 10823 10822
10566 10596 10629 10635 10650 10665 10687 10708 10714 10726 10732 10737 10744 10753 10758 10763 10762 10762 10764 10764 10766 10770 10773 10775 10780 10782 10787 10792 10794 10797 10802 10810 10813 10813 10813 10811 10812 10813 10808 10802 10812 10816 10811 10808
10535 10566 10593 10604 10624 10644 10667 10688 10699 10703 10711 10720 10727 10736 10742 10746 10751 10750 10747 10749 10752 10754 10754 10758 10761 10766 10770 10771 10774 10776 10782 10789 10794 10797 10798 10796 10796 10794 10795 10792 10795 10799 10794 10787
10515 10534 10557 10585 10607 10634 10653 10669 10681 10689 10692 10698 10707 10715 10722 10728 10732 10734 10736 10738 10738 10736 10738 10742 10747 10750 10753 10759 10760 10759 10761 10769 10778 10784 10781 10782 10781 10779 10780 10778 10778 10785 10788 10783
10495 10521 10543 10562 10591 10615 10634 10647 10658 10666 10670 10677 10685 10692 10700 10707 10709 10711 10719 10727 10727 10726 10728 10728 10729 10733 10736 10740 10743 10745 10753 10761 10765 10760 10760 10760 10760 10760 10760 10766 10776 10790 10775 10790
10480 10503 10525 10551 10584 10573 10599 10623 10634 10644 10651 10658 10668 10673 10677 10684 10690 10701 10709 10710 10716 10714 10710 10712 10713 10715 10719 10721 10725 10727 10739 10749 10749 10748 10749 10751 10756 10757 10754 10754 10777 10804 10792 10774
10469 10488 10512 10538 10543 10559 10577 10598 10610 10623 10631 10640 10648 10655 10663 10674 10685 10691 10696 10702 10699 10696 10701 10704 10704 10704 10705 10713 10719 10723 10724 10727 10727 10735 10740 10743 10757 10759 10746 10748 10751 10744 10755 10757
10462 10480 10500 10520 10530 10536 10550 10586 10591 10603 10616 10625 10633 10638 10646 10656 10666 10674 10677 10681 10683 10686 10686 10688 10688 10688 10689 10691 10696 10707 10702 10701 10706 10717 10741 10735 10748 10757 10753 10750 10746 10745 10752 10745
10453 10470 10490 10506 10523 10530 10541 10565 10577 10588 10597 10610 10617 10625 10629 10637 10650 10658 10663 10666 10668 10670 10670 10671 10672 10671 10672 10674 10681 10683 10689 10692 10689 10684 10728 10734 10730 10734 10741 10740 10739 10735 10731 10726
10449 10468 10486 10500 10514 10524 10533 10554 10566 10575 10584 10593 10602 10608 10612 10622 10637 10644 10649 10651 10653 10657 10655 10658 10659 10661 10664 10668 10672 10671 10671 10674 10673 10687 10706 10709 10708 10704 10710 10718 10718 10714 10711 10712
10452 10468 10483 10500 10512 10518 10530 10544 10555 10564 10573 10582 10589 10595 10600 10609 10626 10632 10634 10636 10637 10640 10642 10645 10645 10648 10651 10648 10654 10662 10663 10662 10670 10680 10686 10687 10689 10691 10695 10697 10695 10696 10692 10692
10455 10466 10480 10490 10504 10512 10521 10536 10548 10555 10564 10570 10577 10585 10594 10609 10614 10618 10620 10621 10623 10624 10627 10631 10634 10634 10636 10637 10638 10642 10647 10651 10656 10660 10666 10670 10673 10674 10676 10675 10671 10675 10677 10674
10458 10468 10478 10487 10496 10506 10517 10529 10541 10550 10555 10563 10572 10580 10589 10596 10600 10604 10608 10607 10609 10610 10613 10617 10619 10623 10623 10623 10622 10625 10628 10632 10637 10641 10647 10648 10651 10650 10651 10650 10653 10656 10656 10656
10461 10470 10480 10487 10496 10504 10518 10525 10534 10542 10546 10554 10561 10566 10573 10581 10585 10588 10590 10594 10596 10599 10604 10605 10607 10609 10605 10609 10612 10613 10617 10619 10624 10625 10625 10627 10628 10631 10636 10638 10636 10638 10639 10632
10461 10467 10477 10488 10494 10500 10507 10515 10522 10528 10535 10544 10549 10555 10559 10564 10568 10573 10578 10581 10584 10584 10587 10590 10591 10590 10591 10597 10599 10600 10604 10608 10607 10609 10611 10612 10611 10614 10615 10615 10612 10612 10613 10608
10465 10470 10476 10483 10489 10494 10501 10509 10514 10519 10526 10530 10536 10541 10544 10547 10552 10557 10563 10567 10568 10570 10572 10574 10576 10577 10578 10580 10583 10584 10586 10589 10592 10591 10591 10592 10591 10592 10594 10592 10591 10588 10587 10583
10466 10470 10474 10480 10485 10489 10495 10500 10505 10508 10512 10516 10519 10525 10529 10532 10536 10541 10544 10550 10555 10556 10554 10555 10556 10559 10561 10560 10563 10565 10568 10571 10572 10571 10569 10571 10569 10569 10568 10569 10569 10569 10566 10564
10459 10462 10466 10470 10474 10479 10483 10487 10492 10495 10499 10503 10507 10509 10512 10515 10519 10523 10527 10531 10533 10534 10535 10536 10538 10542 10540 10543 10546 10546 10546 10548 10549 10547 10548 10550 10548 10547 10548 10547 10548 10547 10542 10541
10451 10455 10458 10459 10462 10466 10470 10474 10478 10482 10485 10488 10489 10491 10492 10496 10499 10503 10506 10508 10510 10511 10512 10514 10515 10517 10521 10524 10525 10527 10529 10529 10528 10528 10526 10523 10522 10524 10523 10520 10523 10519 10518 10520
10438 10442 10444 10445 10448 10451 10454 10457 10459 10462 10464 10466 10468 10471 10472 10473 10476 10479 10482 10485 10488 10491 10493 10495 10494 10495 10497 10498 10499 10499 10499 10499 10498 10501 10501 10497 10494 10496 10496 10492 10487 10487 10492 10492